Temp_Advection
nan nan nan nan nan nan nan nan nan nan nan nan nan nan nan nan nan nan nan nan nan nan nan nan nan nan nan nan nan nan nan nan nan nan nan nan nan nan nan nan nan nan nan nan nan nan nan
nan 1 1 0 -0 -0 0 0 -0 -0 -0 -1 -0 -0 -0 -0 -0 -0 -0 -0 0 0 -0 -0 -0 -0 -0 -1 -0 0 -0 0 0 -0 -1 -1 -0 -0 -0 -0 -0 -0 0 -0 -0 -0 nan
nan 0 1 1 0 -0 -0 -0 0 -0 -0 -0 -1 -0 -0 -0 -0 -0 -0 -0 -0 0 -0 -0 0 0 -1 -3 -0 0 -0 -0 -0 -0 -0 -0 -0 -0 -0 -0 -0 -0 0 0 0 -0 nan
nan 0 0 1 1 0 -0 -0 0 0 -0 -0 -1 -0 -0 -0 -0 -0 -0 -0 0 -0 -0 -0 0 -0 -1 -0 -0 -0 -0 -0 -0 -0 -0 -0 -0 -0 -0 -1 0 0 0 0 0 -0 nan
nan 0 0 0 1 1 0 -1 -0 0 0 -0 -0 -0 -0 -0 -0 -0 -0 -0 0 -0 -0 0 -0 -0 -1 -0 -0 -0 -0 -0 -0 0 -0 0 -0 -0 -0 0 0 0 0 -0 0 0 nan
nan -0 0 0 1 1 1 -0 -0 0 0 -0 -0 -0 -0 -0 -0 -0 -0 -0 -0 -0 -0 0 -0 -1 -2 -1 -0 -0 -0 -0 -0 -0 -0 -0 -0 -0 -0 0 -0 -0 -0 -0 -0 -0 nan
nan -0 1 1 -0 -0 1 0 -0 0 0 -0 -0 -0 -0 -0 -0 -0 -0 -0 0 0 -1 -2 -0 -1 -0 0 0 -0 -0 -0 -0 -0 0 -0 -0 0 0 -0 -1 -0 -0 -0 -0 -0 nan
nan 0 -0 1 1 -1 -0 1 -0 1 0 -0 -0 -0 -0 -0 -0 0 -0 -0 0 0 -0 -1 -0 -1 -1 -0 -0 -0 -0 -0 0 1 -0 -0 0 -0 -0 -0 -0 -0 0 -0 0 0 nan
nan -1 -0 1 1 1 0 -0 1 0 -0 -0 -0 -0 -0 -0 -0 -0 -0 -1 -0 -1 -1 -1 -1 -1 -1 -1 -1 -0 -0 -0 -0 -1 0 -0 -0 -0 -0 -0 -0 -0 0 -0 -0 0 nan
nan 1 -1 -1 1 1 -1 -0 0 -0 0 -0 0 -0 -0 -0 -0 -0 -1 -0 0 -0 -1 -1 -1 -0 -0 -0 -1 -0 -0 1 -1 -1 -0 -0 -1 -0 -0 -0 -0 0 -0 -0 0 0 nan
nan 0 0 0 -1 -0 -0 -0 0 1 -0 -0 0 -0 -0 -0 -0 -0 0 0 0 -0 -1 -0 -0 -0 -0 -1 -0 -0 0 0 -0 -1 -1 0 -1 -1 0 -0 -0 -0 -0 -1 -0 0 nan
nan 0 0 -0 0 0 -1 -1 -0 -0 -0 -0 0 -0 -0 -0 -1 -0 0 0 -0 -0 -1 0 0 -0 -0 -0 -0 0 0 0 -0 0 0 -1 1 -0 0 -0 -0 -0 -0 -0 0 1 nan
nan 0 0 -0 -1 -0 -1 -1 -1 -0 -0 0 0 -0 -0 -0 -0 0 0 0 -0 -1 -1 -0 -0 -0 0 -0 -0 0 0 0 0 0 0 -0 -0 -1 -0 -0 0 1 1 0 -1 -1 nan
nan -0 -0 -1 -1 -0 -0 -1 -1 0 -0 0 0 -0 0 -1 0 0 0 -0 -1 -1 -2 0 -0 0 0 -0 0 0 0 -0 -1 -0 0 1 -0 0 -0 1 -1 -2 -0 0 -0 -0 nan
nan -0 -1 -1 -1 -0 -0 -1 -0 -0 -1 0 0 1 -1 -1 0 0 -1 -1 -1 -1 -1 0 0 0 -0 -0 0 0 0 -1 -0 0 1 -0 1 -1 -0 -0 0 0 -0 0 -0 -0 nan
nan -1 -0 -0 -0 -0 -0 -1 -1 -0 -0 0 1 -0 -3 0 1 -0 -1 -2 -2 -2 -0 0 0 -0 -0 0 0 0 -0 -0 -0 0 -2 -1 -0 -3 -1 0 0 -0 -0 0 0 0 nan
nan -0 0 0 -0 -0 -0 -0 -0 -0 -0 1 0 -1 -1 0 -0 -2 -1 -2 -2 -2 -0 0 -0 -0 -0 -0 -0 -0 -0 -0 0 0 0 -1 -2 -0 0 -0 -0 -0 0 -0 -0 0 nan
nan 0 0 -0 -1 -0 -0 -0 -0 -0 0 0 -1 -1 0 -1 -1 -2 -1 -2 -2 -1 0 -0 -0 -0 -0 0 0 -0 -0 1 1 0 0 -0 0 0 -0 0 0 0 0 0 -0 -0 nan
nan 0 -0 -1 -0 -0 -0 -1 -0 -0 0 -0 -1 -0 2 0 -1 -1 -1 -2 -1 -1 -0 0 -0 -0 0 0 -0 -0 0 -0 0 0 -0 -0 0 0 -1 0 0 0 -0 -0 0 -0 nan
nan -1 -1 -0 0 -1 -1 -1 -0 -0 -0 -1 -1 -0 -0 -1 -2 -1 -1 -1 -1 -1 -0 -0 -0 -0 0 0 0 0 0 -0 0 -0 -0 -0 -0 0 -0 -1 -0 0 -0 -0 1 -0 nan
nan -0 -0 -0 -0 -1 -1 -0 0 -0 -0 0 -1 -1 -1 -1 -1 -1 -0 -0 -1 -1 -1 0 0 0 0 0 0 0 0 -1 -0 0 -0 -0 0 -1 -1 0 0 -0 -0 0 0 -0 nan
nan -0 -0 -0 -1 -1 -1 0 0 0 0 -1 -1 -0 -1 -1 -1 -0 -0 -1 -1 -1 -0 -0 -0 -0 0 -0 0 0 0 -0 -0 -0 -0 0 0 -0 -0 -1 -0 -0 -1 -0 -0 -0 nan
nan -0 -0 -1 -1 -0 -0 -0 -0 0 0 -2 -2 -2 0 0 -1 -1 -1 -1 -1 -0 0 -0 -0 0 1 0 -1 -0 0 0 0 -0 -0 0 0 0 0 -1 -1 -0 -1 -1 -1 -0 nan
nan -0 -1 -0 0 -0 -0 -0 -1 -0 -1 -1 -3 -1 -0 1 -1 -1 -1 -1 -1 0 0 0 1 1 -0 0 0 -0 -0 -0 0 0 0 0 0 -0 0 -0 -0 -1 0 0 -0 -0 nan
nan -0 -0 -0 -0 -1 -0 -1 -1 0 -1 -2 -2 -1 0 -0 -0 -1 -1 -1 0 1 1 1 -1 1 0 -0 -0 -0 -0 0 0 0 0 0 -0 -0 0 -0 -1 -1 0 -0 -0 -0 nan
nan -0 -0 -0 -0 -0 -0 -0 0 -0 -2 -1 0 -1 -1 -1 -1 -1 -0 0 1 0 -0 0 1 1 0 -0 -0 -0 -0 -1 -0 0 0 0 0 0 -0 0 -0 0 0 -0 -0 0 nan
nan -0 -0 -0 -0 -0 -0 -0 -1 -1 -2 -1 -2 -1 -0 -1 -2 -0 -0 0 -0 -1 0 -0 0 0 0 -0 0 0 0 0 -0 -0 0 0 0 0 0 -0 -1 0 -0 -0 0 0 nan
nan -0 -0 -0 -0 -0 -0 -0 -1 -2 -2 -2 -2 -1 -0 -2 1 1 1 1 1 -2 -0 0 -0 -0 -0 -0 -0 0 0 0 0 -0 -1 -0 -1 -0 -0 -0 -1 1 -0 -0 0 0 nan
nan nan nan nan nan nan nan nan nan nan nan nan nan nan nan nan nan nan nan nan nan nan nan nan nan nan nan nan nan nan nan nan nan nan nan nan nan nan nan nan nan nan nan nan nan nan nan
Wind_Speed
33 35 31 26 25 23 21 19 17 17 18 17 17 17 17 18 19 20 21 21 21 19 16 14 11 9 8 7 12 4 5 3 5 13 11 9 11 12 14 17 11 14 16 10 11 7 7
20 27 35 30 28 27 24 22 20 19 18 17 16 17 17 17 18 19 20 20 19 16 13 11 8 7 6 10 1 1 5 3 6 12 10 11 10 12 15 15 12 12 15 12 6 10 8
23 21 23 35 31 28 27 24 21 20 19 18 17 17 16 16 17 18 19 18 17 14 12 10 7 6 10 18 3 2 1 3 8 9 10 8 11 6 5 9 10 6 10 8 5 7 14
28 26 23 25 35 31 29 27 24 21 19 19 18 17 16 15 16 17 17 16 15 12 11 8 6 5 10 3 9 10 9 7 8 11 11 6 6 11 11 16 3 11 9 6 8 12 10
33 31 28 25 28 34 31 28 25 23 20 19 19 17 15 15 16 16 16 13 12 10 8 4 4 4 11 6 12 9 9 9 6 9 10 8 7 13 13 10 5 5 9 13 9 10 9
37 36 33 29 28 30 34 30 27 25 21 19 18 17 16 15 14 14 13 10 10 7 5 6 6 7 12 9 9 6 6 7 6 8 8 9 8 8 8 7 2 7 10 12 11 14 12
40 39 38 34 29 28 31 33 29 28 24 20 18 17 16 15 13 11 9 7 8 3 10 12 2 11 3 4 8 10 9 8 8 10 12 15 8 11 3 4 12 8 12 11 10 7 11
42 41 41 39 34 29 29 34 32 29 23 21 19 17 16 15 13 11 10 6 6 6 10 20 19 17 17 10 11 14 10 8 14 9 16 9 8 4 7 12 8 10 13 5 7 5 6
41 43 42 40 38 33 30 34 35 29 26 23 20 17 16 14 13 14 14 16 5 15 7 13 21 17 15 15 18 16 13 15 10 9 11 8 8 0 9 8 12 14 5 6 11 7 7
45 41 39 41 40 36 31 30 36 34 28 24 21 18 16 11 9 8 11 6 8 6 5 9 15 13 18 12 15 18 19 17 8 13 3 4 12 9 8 12 14 8 12 9 13 8 8
44 44 42 39 39 37 32 32 36 38 32 23 22 19 17 12 7 9 5 4 5 4 4 12 17 15 16 18 7 14 7 11 9 10 11 10 13 15 6 6 15 3 12 13 9 8 3
46 48 46 42 39 36 33 33 33 36 32 25 24 20 18 19 20 14 3 7 5 5 7 7 13 11 17 17 13 8 14 16 4 3 6 12 9 11 2 10 13 10 9 10 9 6 3
37 48 51 45 41 40 35 34 34 37 31 27 25 23 23 17 10 10 8 5 5 8 8 9 12 15 17 14 13 10 13 16 10 8 10 11 19 12 15 12 7 9 9 2 8 6 5
50 39 48 46 44 42 37 32 34 38 34 28 26 24 25 25 14 3 10 6 11 12 21 2 12 15 18 15 13 12 13 15 17 16 7 9 3 6 11 11 6 18 10 2 1 2 11
52 52 42 48 43 43 39 34 35 38 38 32 27 25 28 28 21 10 16 12 12 12 20 7 12 15 16 17 7 13 14 16 17 17 8 3 7 13 9 3 3 7 2 4 9 6 3
45 50 45 49 39 42 41 34 36 38 39 35 30 18 30 28 26 13 10 19 18 23 13 14 13 12 16 16 12 9 13 14 17 16 15 5 7 18 12 5 5 5 7 3 2 2 5
46 45 48 44 33 41 40 37 38 37 39 33 24 13 17 27 24 17 13 18 22 25 16 7 14 13 16 12 13 12 9 7 7 8 4 11 17 10 6 8 8 5 6 5 6 4 1
41 44 40 41 47 37 39 37 38 37 39 33 26 8 20 35 17 17 14 22 29 22 12 10 14 16 13 12 13 13 15 14 13 8 9 10 4 3 9 3 5 7 10 11 3 5 2
43 41 41 39 38 44 39 39 39 39 45 38 19 19 29 37 13 13 19 26 27 22 15 15 11 14 10 12 7 10 6 6 8 5 1 1 3 5 10 6 8 8 11 10 6 3 4
42 43 40 39 42 47 42 40 43 41 46 38 22 9 14 32 26 20 23 21 24 30 18 16 15 14 9 11 9 8 7 3 3 3 4 4 4 9 7 10 4 13 11 10 10 3 4
40 39 40 40 41 42 46 43 44 44 45 40 20 13 17 12 19 19 20 20 24 23 22 20 15 17 11 9 13 8 9 7 4 3 3 2 8 11 14 16 2 10 9 7 11 11 11
36 36 38 40 41 47 46 41 45 44 43 44 23 15 26 11 28 22 22 27 26 24 18 18 13 14 14 10 10 11 12 8 7 7 7 5 5 4 8 10 10 12 14 13 14 13 13
34 33 33 36 43 47 46 44 42 45 41 34 34 25 18 19 23 20 21 22 25 18 21 22 19 15 16 6 16 13 8 2 8 10 9 7 3 2 2 6 7 5 10 16 15 14 10
31 30 30 38 44 45 45 44 39 38 47 31 41 20 16 15 19 24 25 25 23 23 11 15 19 15 12 19 20 17 14 9 8 4 8 5 5 2 1 2 1 7 4 5 5 7 9
25 27 32 35 38 37 40 43 38 40 56 47 45 18 9 7 18 26 29 23 26 24 16 11 7 14 25 14 4 4 2 3 2 3 3 3 4 2 3 4 7 10 1 2 2 5 11
27 26 30 31 34 36 40 38 39 38 60 56 44 15 8 11 18 41 24 25 14 8 1 8 14 15 10 3 2 4 4 6 7 6 1 2 3 3 3 2 4 2 5 3 2 2 9
28 28 29 28 31 32 34 37 32 40 53 57 49 25 4 14 26 37 23 18 16 17 5 14 8 5 3 2 2 2 4 3 6 6 4 2 0 4 3 1 6 6 5 1 2 3 5
27 27 27 27 31 30 31 29 36 47 51 56 50 23 7 13 27 38 27 22 18 27 6 17 8 3 4 2 3 2 2 3 2 6 7 6 6 3 2 2 5 6 6 2 5 6 10
26 25 25 28 30 29 27 29 43 37 56 51 38 16 23 26 10 21 16 14 11 10 15 20 9 13 9 4 1 3 2 2 2 2 6 3 4 3 7 3 5 4 5 5 5 5 7
Wind_Direction
254 253 253 255 258 264 271 281 288 292 295 289 281 285 291 298 304 312 317 320 316 315 319 315 314 316 323 280 266 322 319 262 189 187 209 232 240 242 245 247 230 235 268 232 67 78 126
263 255 250 249 253 258 260 272 282 287 290 290 279 282 288 297 304 311 316 318 316 313 315 306 311 308 314 264 248 335 321 206 187 187 218 231 234 240 282 279 240 205 269 103 123 127 97
266 264 259 245 248 250 257 255 271 282 288 289 281 280 288 295 303 310 314 315 313 310 308 305 309 303 274 244 258 237 174 181 198 204 222 240 257 285 263 298 281 290 242 131 228 166 111
268 268 265 256 243 245 254 255 258 272 281 284 284 279 283 291 300 306 311 314 310 311 308 313 310 337 264 223 252 271 238 245 231 225 250 300 278 283 295 313 228 256 232 182 193 217 136
267 268 266 261 253 243 244 253 247 261 272 278 283 281 280 286 296 305 311 312 305 307 304 305 345 344 270 275 233 232 221 246 209 224 228 253 249 242 245 250 213 213 239 206 191 224 141
263 265 266 264 260 250 242 244 246 249 263 272 278 278 275 281 291 303 307 308 296 287 281 274 256 280 251 236 214 218 185 208 195 198 203 226 221 229 226 210 184 201 216 232 210 202 201
257 262 264 264 256 256 243 236 244 240 255 263 271 274 270 275 285 295 294 296 312 278 215 223 285 232 169 220 218 219 191 203 226 199 220 196 213 216 170 199 211 239 226 226 222 160 210
252 255 258 260 258 251 251 232 236 238 244 256 262 267 267 272 279 281 259 225 351 354 296 249 243 253 273 280 252 221 190 204 218 235 51 263 221 286 201 243 243 231 245 275 103 177 247
247 249 250 253 256 252 243 233 230 236 234 247 252 259 257 265 275 271 257 236 261 339 268 260 216 228 247 229 247 204 200 219 115 51 322 294 349 278 283 242 223 236 250 154 250 169 231
242 246 246 246 251 253 243 239 227 231 230 240 244 249 248 257 287 282 257 271 251 291 276 208 195 225 234 225 230 237 198 234 110 204 200 323 279 225 255 249 232 276 334 234 256 192 230
247 239 243 242 246 248 243 234 225 228 224 235 235 242 237 225 224 205 54 176 190 184 272 180 186 193 207 211 225 211 217 245 236 188 181 206 270 269 202 289 300 137 266 279 262 244 136
246 241 242 241 241 241 236 228 226 221 223 227 227 233 229 224 219 180 150 150 205 233 239 156 150 178 219 209 231 211 190 226 40 217 238 129 285 290 65 233 266 162 230 252 270 263 111
240 243 240 240 237 240 239 228 223 217 219 221 221 226 224 221 225 227 208 189 212 228 240 184 186 192 215 206 222 208 194 204 221 195 204 217 223 153 188 220 200 227 245 221 15 350 261
239 240 237 238 236 237 238 228 223 213 215 213 218 223 223 217 184 230 196 211 229 203 241 94 186 196 209 211 210 207 223 207 216 233 194 219 333 190 200 255 128 296 250 353 181 184 277
241 240 236 234 231 231 230 223 217 212 212 211 212 218 229 214 197 197 211 212 209 242 198 200 193 206 208 223 207 202 230 208 211 225 251 325 139 333 342 285 276 348 300 357 217 197 326
242 234 227 227 225 223 224 221 214 210 207 210 203 209 229 213 194 196 220 224 224 238 290 170 207 214 214 213 183 213 206 223 224 214 130 155 23 265 242 248 238 259 342 301 227 283 267
237 234 223 223 224 217 222 220 214 208 204 206 185 205 231 204 190 213 219 217 235 228 240 260 222 210 231 194 200 221 219 196 202 171 236 167 194 195 157 210 249 171 243 240 291 261 9
236 230 224 231 232 217 217 212 210 206 201 201 183 206 206 182 179 213 220 216 227 236 203 240 257 234 214 237 192 227 235 182 190 219 197 234 320 260 226 66 341 319 285 217 168 275 177
228 223 224 227 230 228 214 208 208 204 200 194 185 186 179 183 199 202 213 222 228 232 212 211 237 247 199 235 208 220 207 32 90 181 280 100 218 268 286 195 212 244 252 253 274 72 251
221 225 228 225 223 223 211 204 206 204 203 186 178 179 181 202 212 199 201 213 219 232 240 205 224 229 220 223 195 208 192 121 127 101 68 341 249 262 240 257 341 200 242 240 225 150 242
219 223 223 218 222 220 203 200 206 205 202 190 197 203 184 191 208 202 202 213 212 215 221 237 210 216 206 211 195 219 212 118 142 125 163 232 245 260 270 279 288 301 294 243 243 228 230
218 216 217 219 215 212 197 202 205 202 199 205 205 199 174 189 194 210 213 212 207 206 198 230 214 196 199 194 199 197 213 161 180 166 196 194 249 285 291 293 289 273 275 275 273 276 256
211 214 214 214 204 195 191 199 201 201 196 207 210 217 185 194 183 202 216 207 217 204 201 218 210 198 217 151 77 68 76 150 199 166 192 176 235 142 250 346 348 322 244 249 261 264 263
203 206 211 199 188 185 194 202 208 200 196 199 207 218 221 183 189 200 204 211 208 214 182 191 215 228 117 115 94 84 82 84 98 67 193 181 216 84 150 311 256 239 27 354 344 316 309
190 187 180 187 188 196 198 199 205 212 195 195 206 235 218 211 187 192 204 204 202 216 184 159 31 128 142 111 108 106 90 56 191 143 161 208 136 135 148 216 284 307 141 23 46 46 41
186 186 181 188 193 194 195 202 203 214 202 199 210 246 237 195 205 193 194 196 201 127 52 114 102 131 134 105 115 178 175 218 168 140 146 116 161 165 175 224 218 93 97 63 0 165 47
189 190 191 193 193 196 198 199 208 211 196 206 217 220 268 210 199 193 198 198 161 136 202 133 137 115 114 94 134 168 203 230 147 163 168 101 256 178 144 234 293 83 106 91 223 73 59
193 194 194 198 195 200 195 207 200 192 200 204 206 208 230 247 179 194 196 183 180 161 180 136 134 154 144 130 145 160 112 210 206 183 159 168 157 185 120 149 267 134 125 135 55 8 8
199 198 198 194 199 199 207 194 184 189 193 200 213 186 185 236 142 157 148 159 174 184 142 166 161 158 164 150 140 77 112 20 47 192 181 188 182 178 174 198 142 137 48 51 38 5 356
Height
1512 1513 1517 1519 1520 1521 1523 1523 1523 1522 1522 1521 1521 1520 1520 1519 1518 1516 1514 1512 1509 1507 1503 1503 1501 1500 1498 1499 1491 1488 1488 1487 1487 1489 1491 1491 1491 1490 1486 1480 1478 1479 1475 1473 1479 1481 1483
1505 1506 1509 1512 1514 1517 1519 1520 1520 1520 1519 1518 1518 1518 1517 1517 1516 1514 1512 1509 1507 1505 1502 1501 1500 1499 1499 1498 1490 1489 1487 1487 1488 1489 1491 1490 1489 1487 1483 1477 1475 1476 1474 1474 1480 1483 1485
1500 1501 1502 1505 1508 1511 1513 1515 1516 1517 1517 1516 1515 1515 1515 1514 1513 1512 1509 1507 1506 1504 1502 1500 1500 1498 1498 1490 1488 1490 1489 1488 1490 1490 1490 1489 1488 1488 1484 1479 1476 1476 1476 1476 1480 1482 1488
1493 1495 1496 1497 1501 1505 1508 1510 1512 1513 1514 1513 1513 1512 1512 1511 1511 1509 1508 1506 1505 1502 1502 1501 1500 1499 1495 1488 1487 1487 1488 1489 1489 1490 1489 1489 1489 1489 1488 1484 1479 1479 1477 1487 1482 1480 1486
1486 1488 1490 1492 1494 1497 1501 1504 1507 1509 1510 1510 1510 1510 1510 1509 1509 1507 1506 1504 1503 1502 1501 1500 1500 1499 1495 1488 1486 1484 1486 1486 1487 1488 1488 1489 1491 1489 1487 1486 1486 1479 1492 1484 1485 1479 1485
1478 1480 1482 1485 1487 1490 1494 1498 1501 1504 1506 1507 1507 1508 1507 1507 1506 1506 1505 1503 1502 1500 1499 1498 1498 1503 1490 1486 1484 1483 1484 1485 1486 1486 1488 1488 1488 1484 1483 1484 1505 1500 1490 1485 1481 1477 1479
1470 1472 1474 1477 1481 1483 1486 1491 1495 1498 1501 1503 1505 1505 1505 1504 1504 1504 1504 1503 1502 1500 1497 1491 1490 1487 1484 1484 1484 1482 1482 1483 1484 1485 1484 1484 1485 1484 1479 1480 1488 1483 1485 1482 1472 1469 1475
1460 1463 1466 1469 1472 1476 1480 1483 1488 1492 1496 1498 1500 1501 1503 1502 1502 1502 1502 1504 1502 1500 1493 1485 1486 1487 1486 1486 1482 1478 1480 1482 1481 1481 1486 1484 1483 1491 1485 1482 1482 1480 1481 1488 1471 1472 1474
1450 1453 1457 1459 1463 1467 1472 1476 1481 1487 1491 1494 1496 1498 1499 1500 1499 1499 1499 1499 1500 1499 1493 1478 1480 1482 1483 1484 1480 1475 1478 1477 1480 1487 1489 1497 1486 1486 1484 1480 1483 1478 1479 1482 1478 1473 1474
1440 1444 1447 1450 1454 1458 1464 1468 1475 1480 1486 1489 1492 1493 1496 1499 1501 1496 1495 1497 1499 1501 1492 1472 1475 1477 1479 1480 1476 1472 1472 1475 1484 1493 1493 1500 1487 1488 1482 1480 1477 1482 1480 1476 1473 1479 1493
1429 1433 1437 1442 1445 1450 1454 1462 1467 1474 1479 1484 1488 1490 1492 1496 1496 1497 1499 1499 1500 1501 1500 1456 1467 1471 1473 1476 1468 1471 1473 1474 1474 1478 1482 1505 1496 1485 1483 1482 1476 1481 1477 1477 1472 1477 1487
1418 1422 1427 1432 1437 1442 1446 1453 1459 1467 1472 1479 1483 1486 1489 1491 1493 1493 1495 1497 1501 1500 1495 1462 1460 1465 1469 1471 1468 1464 1472 1474 1473 1474 1475 1485 1490 1492 1483 1480 1476 1475 1477 1474 1473 1476 1514
1405 1410 1416 1422 1428 1434 1439 1445 1451 1459 1467 1473 1477 1481 1484 1489 1492 1494 1495 1498 1497 1490 1458 1458 1459 1463 1466 1467 1466 1466 1469 1471 1474 1483 1483 1474 1475 1475 1478 1480 1472 1473 1475 1495 1525 1522 1500
1394 1398 1405 1412 1418 1424 1431 1437 1444 1451 1460 1468 1473 1476 1478 1482 1487 1492 1494 1497 1488 1462 1459 1448 1453 1459 1465 1461 1463 1464 1465 1469 1468 1467 1475 1482 1494 1473 1471 1471 1488 1488 1475 1494 1524 1548 1497
1382 1388 1395 1401 1408 1415 1423 1430 1436 1445 1454 1463 1468 1471 1472 1475 1484 1488 1493 1488 1470 1454 1447 1449 1451 1460 1462 1457 1459 1461 1464 1464 1462 1464 1476 1490 1494 1483 1472 1469 1473 1473 1480 1473 1490 1494 1498
1369 1376 1384 1391 1397 1405 1413 1422 1430 1438 1448 1455 1460 1467 1465 1471 1480 1486 1485 1472 1459 1449 1444 1444 1455 1453 1460 1457 1462 1460 1461 1456 1458 1458 1467 1489 1515 1490 1476 1475 1473 1475 1472 1487 1483 1506 1508
1357 1364 1371 1379 1387 1395 1404 1414 1422 1431 1440 1450 1458 1463 1458 1467 1477 1481 1466 1462 1457 1447 1446 1446 1448 1450 1449 1451 1454 1457 1456 1451 1454 1459 1463 1472 1491 1485 1477 1476 1472 1476 1480 1477 1476 1479 1500
1347 1353 1361 1369 1378 1386 1396 1405 1415 1424 1434 1444 1449 1452 1450 1459 1470 1465 1459 1453 1452 1444 1444 1447 1445 1444 1447 1445 1450 1455 1455 1450 1453 1459 1466 1464 1465 1477 1473 1463 1465 1468 1472 1471 1492 1495 1488
1335 1344 1352 1361 1369 1378 1388 1397 1406 1416 1423 1433 1438 1446 1449 1449 1450 1448 1455 1450 1446 1443 1441 1446 1445 1443 1442 1445 1452 1451 1448 1460 1459 1460 1464 1464 1472 1486 1479 1469 1466 1472 1469 1469 1469 1481 1491
1326 1336 1343 1351 1359 1369 1378 1389 1398 1407 1416 1427 1434 1438 1440 1443 1442 1443 1445 1442 1442 1439 1438 1441 1443 1442 1442 1445 1443 1451 1452 1464 1464 1464 1468 1468 1469 1474 1486 1472 1467 1471 1470 1466 1471 1495 1493
1319 1326 1335 1342 1349 1360 1369 1380 1390 1400 1408 1419 1419 1412 1415 1424 1431 1433 1437 1437 1437 1436 1436 1436 1439 1439 1443 1447 1445 1452 1450 1461 1465 1468 1469 1470 1476 1472 1466 1461 1466 1469 1466 1464 1469 1471 1485
1311 1318 1326 1333 1341 1351 1362 1372 1382 1391 1401 1410 1406 1400 1408 1411 1428 1430 1428 1428 1426 1426 1430 1433 1434 1434 1438 1443 1443 1448 1448 1456 1461 1468 1467 1469 1475 1474 1475 1468 1467 1473 1468 1466 1465 1464 1464
1304 1311 1317 1324 1332 1343 1355 1366 1375 1384 1394 1397 1400 1399 1402 1407 1416 1424 1417 1420 1421 1423 1426 1429 1433 1433 1437 1438 1441 1446 1449 1451 1451 1460 1465 1467 1475 1480 1487 1479 1481 1492 1473 1468 1464 1460 1462
1298 1305 1311 1318 1327 1338 1349 1360 1370 1377 1386 1393 1396 1398 1399 1399 1402 1403 1415 1415 1415 1418 1424 1426 1429 1428 1440 1442 1446 1450 1454 1457 1457 1459 1460 1467 1472 1481 1489 1498 1502 1466 1458 1459 1462 1460 1458
1294 1300 1308 1316 1326 1336 1345 1355 1364 1373 1381 1389 1392 1397 1395 1399 1395 1407 1410 1409 1414 1416 1423 1424 1431 1432 1436 1440 1452 1461 1466 1470 1466 1464 1464 1464 1474 1488 1499 1488 1472 1464 1458 1464 1465 1468 1466
1293 1301 1309 1317 1324 1333 1342 1351 1360 1367 1376 1383 1385 1390 1394 1394 1387 1394 1401 1403 1408 1415 1428 1428 1435 1437 1437 1445 1452 1459 1465 1459 1462 1468 1468 1469 1469 1482 1490 1491 1495 1466 1466 1467 1466 1477 1472
1293 1301 1308 1315 1323 1331 1340 1348 1354 1361 1372 1378 1381 1389 1387 1392 1389 1393 1395 1398 1407 1415 1427 1425 1434 1440 1441 1449 1462 1456 1457 1447 1460 1468 1485 1481 1482 1489 1488 1492 1480 1462 1466 1469 1479 1484 1476
1293 1300 1306 1313 1321 1328 1336 1342 1347 1360 1367 1373 1379 1383 1393 1391 1384 1390 1396 1398 1405 1411 1417 1423 1432 1438 1441 1449 1452 1452 1460 1453 1451 1452 1468 1475 1478 1489 1483 1498 1496 1465 1469 1476 1475 1475 1476
1291 1298 1305 1312 1318 1324 1329 1338 1349 1356 1365 1375 1381 1379 1389 1392 1386 1384 1390 1395 1401 1406 1411 1419 1422 1428 1433 1438 1444 1449 1463 1464 1458 1460 1448 1462 1459 1466 1471 1472 1466 1466 1470 1472 1474 1476 1477